Location: Buch
(50.1863°N, 11.0141°E)
Time: 11:08:16
(UTC+00:00)

Elektron 3 - Pass Details

Date: 18 January 2020
Orbit: 399 x 6170 km, 60.8° (Epoch: 18 February)

Event Time Altitude Azimuth Distance (km) Brightness Sun altitude
Rises 06:11:56 0° 230° (SW) 4,121 8.5 -8.7°
Reaches altitude 10° 06:15:31 10° 232° (SW) 2,529 7.4 -8.2°
Maximum altitude 06:20:34 76° 318° (NW) 559 4.2 -7.5°
Drops below altitude 10° 06:23:36 10° 46° (NE) 1,531 6.9 -7.0°
Sets 06:25:18 0° 48° (NE) 2,329 7.9 -6.8°
